User: anonymous   Login
Location: Oshawa
(43.9000°N, 78.8670°W)
Time: 22:13:54
(UTC-04:00)
Language:

Cosmos 2333 Rocket - Orbit

View from above orbital plane
View from above orbital plane
View from above satellite
View from above satellite

Ground track
Ground track

The orbit data is extracted from the following two-line orbital elements,

1 24298U 96051B   15188.42167603 -.00000124  00000-0 -41077-4 0  9990
2 24298 070.8434 120.4391 0015528 168.6296 330.5276 14.12412507971462
Epoch (UTC): 07 July 2015 10:07:12
Eccentricity: 0.0015528
inclination: 70.8434°
perigee height: 840 km
apogee height: 862 km
right ascension of ascending node: 120.4391°
argument of perigee: 168.6296°
revolutions per day: 14.12412507
mean anomaly at epoch: 330.5276°
orbit number at epoch: 97146

The dashed part of the orbit path shows where the satellite is in the earth's shadow,  

DLR